Weather History for KIDP - December, 2012

Change the Weather History Date:

Tuesday, December 25, 2012

  Actual Average (KCFV) Record (KCFV)
Temperature  
Mean Temperature 22 °F -  
Max Temperature 26 °F 43 °F 57 °F (1999)
Min Temperature 19 °F 22 °F 1 °F (2002)
Degree Days  
Heating Degree Days 42    
Moisture  
Dew Point 16 °F    
Average Humidity 71    
Maximum Humidity 80    
Minimum Humidity 59    
Precipitation  
Precipitation 0.00 in - - ()
Sea Level Pressure  
Sea Level Pressure 30.10 in    
Wind  
Wind Speed 20 mph (NNE)    
Max Wind Speed 30 mph    
Max Gust Speed 38 mph    
Visibility 10 miles    
Events      
Averages and records for this station are not official NWS values.
T = Trace of Precipitation, MM = Missing Value Source: NWS Daily Summary

Daily Weather History Graph

Daily Weather History Graph

Search for Another Location

Airport or City:

Trip Planner

Search our weather history database for the weather conditions in past years. The results will help you decide how hot, cold, wet, or windy it might be!

Date:

Astronomy

Dec. 25, 2012 Rise Set
Actual Time 7:35 AM CST 5:12 PM CST
Civil Twilight 7:05 AM CST 5:41 PM CST
Nautical Twilight 6:33 AM CST 6:13 PM CST
Astronomical Twilight 6:01 AM CST 6:45 PM CST
Moon 3:20 PM CST (12/25) 5:09 AM CST (12/25)
Length of Visible Light 10h 35m
Length of Day
9h 36m
Waxing Gibbous, 94% of the Moon is Illuminated
Dec 25
Waxing Gibbous
Dec 28
Full
Jan 4
Last Quarter
Jan 11
New
Jan 18
First Quarter

Hourly Weather History & Observations

Time (CST) Temp. Windchill Dew Point Humidity Pressure Visibility Wind Dir Wind Speed Gust Speed Precip Events Conditions
12:15 AM 23.0 °F 10.1 °F 15.8 °F 74% 30.05 in 10.0 mi NE 15.0 mph - N/A   Clear
12:35 AM 23.0 °F 9.6 °F 15.8 °F 74% 30.06 in 10.0 mi NE 16.1 mph - N/A   Clear
12:55 AM 23.0 °F 8.7 °F 14.0 °F 68% 30.05 in 10.0 mi NE 18.4 mph 25.3 mph N/A   Clear
1:15 AM 23.0 °F 10.6 °F 14.0 °F 68% 30.06 in 10.0 mi NE 13.8 mph - N/A   Clear
1:35 AM 23.0 °F 10.6 °F 14.0 °F 68% 30.07 in 10.0 mi NE 13.8 mph - N/A   Clear
1:55 AM 23.0 °F 9.2 °F 14.0 °F 68% 30.08 in 10.0 mi NE 17.3 mph - N/A   Clear
2:15 AM 23.0 °F 8.0 °F 14.0 °F 68% 30.07 in 10.0 mi NE 20.7 mph - N/A   Clear
2:35 AM 23.0 °F 7.6 °F 14.0 °F 68% 30.07 in 10.0 mi NE 21.9 mph - N/A   Clear
2:55 AM 23.0 °F 9.2 °F 14.0 °F 68% 30.07 in 10.0 mi NE 17.3 mph - N/A   Clear
3:15 AM 23.0 °F 8.7 °F 14.0 °F 68% 30.06 in 10.0 mi NE 18.4 mph 27.6 mph N/A   Scattered Clouds
3:35 AM 23.0 °F 7.2 °F 14.0 °F 68% 30.06 in 10.0 mi NE 23.0 mph 27.6 mph N/A   Clear
3:55 AM 23.0 °F 8.0 °F 14.0 °F 68% 30.06 in 10.0 mi NE 20.7 mph 26.5 mph N/A   Clear
4:15 AM 23.0 °F 8.7 °F 14.0 °F 68% 30.07 in 10.0 mi NE 18.4 mph 26.5 mph N/A   Clear
4:35 AM 23.0 °F 8.3 °F 14.0 °F 68% 30.06 in 10.0 mi NE 19.6 mph 26.5 mph N/A   Clear
4:55 AM 23.0 °F 8.7 °F 14.0 °F 68% 30.05 in 10.0 mi NNE 18.4 mph 23.0 mph N/A   Clear
5:15 AM 23.0 °F 7.2 °F 14.0 °F 68% 30.05 in 10.0 mi NE 23.0 mph 26.5 mph N/A   Clear
5:35 AM 23.0 °F 8.7 °F 14.0 °F 68% 30.06 in 10.0 mi NE 18.4 mph - N/A   Clear
5:55 AM 23.0 °F 8.7 °F 15.8 °F 74% 30.07 in 10.0 mi NE 18.4 mph 26.5 mph N/A   Clear
6:15 AM 23.0 °F 8.7 °F 15.8 °F 74% 30.07 in 10.0 mi NNE 18.4 mph 25.3 mph N/A   Clear
6:35 AM 23.0 °F 8.3 °F 15.8 °F 74% 30.08 in 10.0 mi NE 19.6 mph 27.6 mph N/A   Clear
6:55 AM 23.0 °F 8.0 °F 15.8 °F 74% 30.09 in 10.0 mi NE 20.7 mph - N/A   Clear
7:15 AM 23.0 °F 7.6 °F 17.6 °F 80% 30.09 in 10.0 mi NE 21.9 mph 25.3 mph N/A   Clear
7:35 AM 23.0 °F 7.6 °F 17.6 °F 80% 30.09 in 10.0 mi NE 21.9 mph 32.2 mph N/A   Clear
7:55 AM 23.0 °F 8.3 °F 17.6 °F 80% 30.08 in 10.0 mi NE 19.6 mph 27.6 mph N/A   Clear
8:15 AM 23.0 °F 6.9 °F 17.6 °F 80% 30.09 in 10.0 mi NNE 24.2 mph 28.8 mph N/A   Scattered Clouds
8:35 AM 23.0 °F 8.0 °F 17.6 °F 80% 30.08 in 10.0 mi NNE 20.7 mph 32.2 mph N/A   Mostly Cloudy
8:55 AM 24.8 °F 9.6 °F 17.6 °F 74% 30.08 in 10.0 mi NE 23.0 mph 35.7 mph N/A   Overcast
9:15 AM 24.8 °F 9.3 °F 19.4 °F 80% 30.07 in 10.0 mi NE 24.2 mph 34.5 mph N/A   Overcast
9:35 AM 26.6 °F 10.8 °F 19.4 °F 74% 30.08 in 10.0 mi NE 27.6 mph 33.4 mph N/A   Overcast
9:55 AM 26.6 °F 11.7 °F 19.4 °F 74% 30.07 in 10.0 mi NE 24.2 mph 32.2 mph N/A   Overcast
10:15 AM 26.6 °F 10.3 °F 19.4 °F 74% 30.07 in 10.0 mi NNE 29.9 mph 34.5 mph N/A   Overcast
10:35 AM 26.6 °F 11.7 °F 19.4 °F 74% 30.06 in 10.0 mi NNE 24.2 mph 35.7 mph N/A   Overcast
10:55 AM 26.6 °F 11.7 °F 19.4 °F 74% 30.06 in 10.0 mi NE 24.2 mph 35.7 mph N/A   Overcast
11:35 AM 26.6 °F 11.4 °F 19.4 °F 74% 30.09 in 10.0 mi NNE 25.3 mph 33.4 mph N/A   Overcast
11:55 AM 26.6 °F 12.7 °F 19.4 °F 74% 30.09 in 10.0 mi NNE 20.7 mph 28.8 mph N/A   Overcast
12:15 PM 26.6 °F 12.7 °F 19.4 °F 74% 30.08 in 10.0 mi NNE 20.7 mph 27.6 mph N/A   Overcast
12:35 PM 26.6 °F 12.0 °F 19.4 °F 74% 30.09 in 10.0 mi NNE 23.0 mph 26.5 mph N/A   Overcast
12:55 PM 26.6 °F 11.7 °F 19.4 °F 74% 30.10 in 10.0 mi NNE 24.2 mph 29.9 mph N/A   Overcast
1:15 PM 26.6 °F 12.7 °F 19.4 °F 74% 30.09 in 7.0 mi North 20.7 mph 29.9 mph N/A   Overcast
1:35 PM 26.6 °F 11.1 °F 19.4 °F 74% 30.08 in 10.0 mi North 26.5 mph 29.9 mph N/A   Overcast
1:55 PM 26.6 °F 10.8 °F 19.4 °F 74% 30.08 in 10.0 mi NNE 27.6 mph 33.4 mph N/A   Overcast
2:15 PM 26.6 °F 13.4 °F 19.4 °F 74% 30.10 in 10.0 mi North 18.4 mph - N/A   Overcast
2:35 PM 24.8 °F 10.0 °F 19.4 °F 80% 30.11 in 10.0 mi North 21.9 mph 27.6 mph N/A   Overcast
2:55 PM 24.8 °F 9.6 °F 17.6 °F 74% 30.12 in 10.0 mi NNE 23.0 mph 28.8 mph N/A   Overcast
3:15 PM 24.8 °F 9.6 °F 17.6 °F 74% 30.12 in 10.0 mi North 23.0 mph 26.5 mph N/A   Overcast
3:35 PM 24.8 °F 10.0 °F 17.6 °F 74% 30.13 in 10.0 mi North 21.9 mph 29.9 mph N/A   Overcast
3:55 PM 24.8 °F 9.3 °F 17.6 °F 74% 30.13 in 10.0 mi North 24.2 mph 32.2 mph N/A   Overcast
4:15 PM 24.8 °F 8.4 °F 17.6 °F 74% 30.13 in 10.0 mi North 27.6 mph 33.4 mph N/A   Overcast
4:35 PM 23.0 °F 6.0 °F 17.6 °F 80% 30.13 in 10.0 mi NNE 27.6 mph 35.7 mph N/A   Overcast
4:55 PM 24.8 °F 10.7 °F 17.6 °F 74% 30.13 in 10.0 mi North 19.6 mph 34.5 mph N/A   Overcast
5:15 PM 24.8 °F 8.7 °F 17.6 °F 74% 30.12 in 10.0 mi North 26.5 mph 34.5 mph N/A   Overcast
5:35 PM 24.8 °F 10.7 °F 17.6 °F 74% 30.11 in 10.0 mi North 19.6 mph 38.0 mph N/A   Overcast
5:55 PM 24.8 °F 10.0 °F 15.8 °F 69% 30.11 in 10.0 mi North 21.9 mph 29.9 mph N/A   Overcast
6:15 PM 23.0 °F 6.3 °F 14.0 °F 68% 30.11 in 10.0 mi North 26.5 mph 32.2 mph N/A   Mostly Cloudy
6:35 PM 23.0 °F 7.2 °F 14.0 °F 68% 30.13 in 10.0 mi North 23.0 mph 31.1 mph N/A   Mostly Cloudy
6:55 PM 23.0 °F 7.2 °F 14.0 °F 68% 30.13 in 10.0 mi North 23.0 mph 31.1 mph N/A   Overcast
7:15 PM 23.0 °F 6.9 °F 12.2 °F 63% 30.14 in 10.0 mi North 24.2 mph 27.6 mph N/A   Overcast
7:35 PM 23.0 °F 7.2 °F 12.2 °F 63% 30.15 in 10.0 mi North 23.0 mph - N/A   Mostly Cloudy
7:55 PM 23.0 °F 6.9 °F 12.2 °F 63% 30.15 in 10.0 mi North 24.2 mph 33.4 mph N/A   Overcast
8:15 PM 23.0 °F 6.6 °F 12.2 °F 63% 30.15 in 10.0 mi North 25.3 mph 29.9 mph N/A   Overcast
8:35 PM 23.0 °F 8.7 °F 10.4 °F 59% 30.17 in 10.0 mi North 18.4 mph 27.6 mph N/A   Overcast
8:55 PM 23.0 °F 9.2 °F 10.4 °F 59% 30.17 in 10.0 mi North 17.3 mph 26.5 mph N/A   Overcast
9:15 PM 21.2 °F 5.6 °F 10.4 °F 63% 30.17 in 10.0 mi North 20.7 mph 28.8 mph N/A   Overcast
10:15 PM 21.2 °F 6.0 °F 10.4 °F 63% 30.18 in 10.0 mi North 19.6 mph 25.3 mph N/A   Overcast
10:35 PM 21.2 °F 5.6 °F 10.4 °F 63% 30.19 in 10.0 mi North 20.7 mph 25.3 mph N/A   Overcast
10:55 PM 21.2 °F 6.4 °F 10.4 °F 63% 30.19 in 10.0 mi North 18.4 mph 25.3 mph N/A   Overcast
11:15 PM 19.4 °F 2.5 °F 10.4 °F 68% 30.20 in 10.0 mi North 23.0 mph 28.8 mph N/A   Overcast
11:35 PM 19.4 °F 3.6 °F 10.4 °F 68% 30.20 in 10.0 mi North 19.6 mph 26.5 mph N/A   Overcast
11:55 PM 19.4 °F 4.1 °F 10.4 °F 68% 30.20 in 10.0 mi North 18.4 mph 27.6 mph N/A   Overcast